www.pogodaiklimat.ru

Погода и климат >> Архив погоды >> Венгрия >> Paks


ПОГОДА в Paks

  • Прогноз погоды в Paks
  • Монитор погоды в Paks
  • Климат города

АРХИВ ПОГОДЫ в Paks

Время (UTC), дата Ветер
(напр.,м/с)
 
Видим.   Явления Облачность Т
(С)
Тd
(С)
f
(%)
Тe
(С)
Тes
(С)
Комфортность P
(гПа)
Po
(гПа)
Тmin
(С)
Tmax
(С)
R
(мм)
R24
(мм)
S
(см)
02 11.10 штиль 0 6000 м ясно +7.1 +6.5 96 +6 +6 1024.6 1012.4
01 11.10 штиль 0 6000 м ясно +7.1 +6.5 96 +6 +6 1024.9 1012.7
03 11.10 штиль 0 6000 м ясно +6.7 +6.1 96 +6 +6 1024.8 1012.6
04 11.10 штиль 0 6000 м ясно +6.2 +5.8 97 +5 +5 1024.5 1012.3
05 11.10 штиль 0 6000 м ясно +6.3 +5.9 97 +5 +5 1024.8 1012.6
06 11.10 штиль 0 6000 м ясно +6.4 +6.0 97 +5 +6 1025.0 1012.8 +6.0 0
08 11.10 В 1 15 км ясно +15.1 +10.5 74 +16 +20 1025.2 1013.4
07 11.10 штиль 0 12 км ясно +10.9 +10.4 97 +10 +12 1025.3 1013.3
09 11.10 В 1 15 км ясно +17.8 +10.9 64 +19 +25 1025.1 1013.4
10 11.10 В 1 15 км ясно +20.5 +11.2 55 +23 +31 комфорт 1024.8 1013.2
11 11.10 В 1 25 км ясно +23.1 +10.2 44 +25 +33 комфорт 1024.3 1012.8
12 11.10 СВ 1 25 км ясно +23.4 +10.8 45 +26 +33 жарко 1023.8 1012.3
14 11.10 ЮВ 1 25 км ясно +24.5 +10.4 41 +26 +28 жарко 1023.0 1011.6
13 11.10 В 1 25 км ясно +24.9 +10.8 41 +26 +31 жарко 1023.3 1011.9
15 11.10 В 1 25 км ясно +24.3 +10.2 41 +25 +26 комфорт 1022.9 1011.5
16 11.10 штиль 0 25 км ясно +22.3 +10.1 46 +24 +24 комфорт 1023.0 1011.5
17 11.10 штиль 0 20 км ясно +17.2 +9.9 62 +17 +17 1023.7 1012.0
18 11.10 Ю 1 15 км ясно +16.0 +9.2 64 +17 +17 1024.2 1012.4 +25.0
20 11.10 штиль 0 12 км ясно +11.2 +8.6 84 +11 +11 1025.1 1013.1
19 11.10 штиль 0 15 км ясно +13.2 +9.3 77 +13 +13 1024.5 1012.6
21 11.10 штиль 0 8000 м ясно +10.3 +8.2 87 +10 +10 1025.5 1013.5
22 11.10 штиль 0 8000 м ясно +8.6 +7.2 91 +8 +8 1025.8 1013.7
23 11.10 штиль 0 6000 м ясно +7.9 +6.7 92 +7 +7 1026.1 1014.0
00 12.10 СВ 1 6000 м ясно +7.9 +7.1 95 +7 +7 1026.2 1014.1
02 12.10 СВ 1 6000 м ясно +6.8 +5.9 94 +6 +6 1026.1 1013.9
01 12.10 штиль 0 6000 м ясно +6.8 +6.2 96 +6 +6 1026.2 1014.0
03 12.10 СВ 1 4000 м дымка ясно +6.5 +6.1 97 +5 +5 1026.2 1014.0
04 12.10 штиль 0 4000 м дымка ясно +5.1 +4.7 97 +4 +4 1026.8 1014.5
05 12.10 штиль 0 3000 м дымка ясно +4.8 +4.4 97 +4 +4 1027.2 1014.9
06 12.10 штиль 0 5000 м дымка ясно +5.1 +4.5 96 +4 +4 1027.9 1015.6 +4.5
08 12.10 ЮВ 1 18 км ясно +15.5 +9.6 68 +16 +20 1028.5 1016.7
07 12.10 В 1 10 км ясно +10.7 +9.3 91 +10 +12 1028.1 1016.1
09 12.10 ЮВ 2 25 км ясно +19.7 +10.4 55 +22 +27 комфорт 1028.5 1016.8
10 12.10 Ю 3
{9}
30 км ясно +21.7 +9.3 45 +23 +29 комфорт 1028.3 1016.7
11 12.10 ЮВ 3
{7}
35 км ясно +23.2 +8.5 39 +24 +30 комфорт 1027.8 1016.3
12 12.10 ЮВ 3 35 км ясно +24.1 +8.5 37 +25 +30 комфорт 1027.5 1016.0
14 12.10 ЮВ 1 35 км ясно +24.0 +8.8 38 +25 +28 комфорт 1027.2 1015.7
13 12.10 ЮВ 2 35 км ясно +24.0 +8.0 36 +24 +29 комфорт 1027.3 1015.8
15 12.10 штиль 0 35 км ясно +23.5 +8.8 39 +24 +25 комфорт 1027.1 1015.6
16 12.10 В 1 30 км ясно +21.3 +8.9 45 +23 +23 комфорт 1027.3 1015.7
17 12.10 штиль 0 25 км ясно +16.0 +9.4 65 +16 +16 1027.9 1016.1
18 12.10 штиль 0 20 км ясно +13.3 +8.8 74 +13 +13 1028.1 1016.2 +24.5 0
20 12.10 штиль 0 15 км ясно +9.5 +7.6 88 +9 +9 1029.0 1016.9
19 12.10 штиль 0 15 км ясно +10.9 +8.1 83 +10 +10 1028.7 1016.7
21 12.10 штиль 0 10 км ясно +8.5 +7.1 91 +8 +8 1029.2 1017.1
22 12.10 штиль 0 10 км ясно +7.6 +6.4 92 +7 +7 1029.1 1016.9
23 12.10 штиль 0 10 км ясно +7.0 +6.1 94 +6 +6 1029.0 1016.8
00 13.10 штиль 0 6000 м ясно +6.5 +5.8 95 +5 +5 1029.2 1017.0
02 13.10 штиль 0 6000 м ясно +5.5 +5.1 97 +4 +4 1029.4 1017.1
01 13.10 штиль 0 6000 м ясно +5.8 +5.2 96 +5 +5 1029.4 1017.1
03 13.10 штиль 0 6000 м ясно +5.2 +4.5 95 +4 +4 1029.3 1017.0
04 13.10 С 1 3000 м дымка ясно +5.1 +4.5 96 +4 +4 1029.3 1017.0
05 13.10 штиль 0 3000 м дымка ясно +4.7 +4.3 97 +4 +4 1029.2 1016.9
06 13.10 штиль 0 3000 м дымка ясно +4.7 +4.3 97 +4 +4 1029.6 1017.3 +4.3 0
08 13.10 СВ 1 10 км ясно +14.4 +10.0 75 +15 +19 1029.7 1017.8
07 13.10 С 1 5000 м дымка ясно +9.0 +8.9 99 +8 +10 1029.6 1017.5
09 13.10 СВ 1 15 км ясно +17.7 +10.1 61 +19 +25 1029.5 1017.7
10 13.10 ЮВ 1 20 км ясно +21.1 +8.7 45 +22 +30 комфорт 1029.2 1017.6
11 13.10 ЮВ 1 25 км ясно +23.2 +6.9 35 +24 +32 комфорт 1028.7 1017.2
12 13.10 ЮВ 1 20 км ясно +24.3 +6.1 31 +24 +31 комфорт 1028.0 1016.5
14 13.10 штиль 0 20 км ясно +24.0 +6.8 33 +24 +27 комфорт 1027.0 1015.5
13 13.10 ЮВ 1 20 км ясно +24.2 +6.5 32 +24 +29 комфорт 1027.6 1016.1
15 13.10 СВ 1 20 км ясно +23.4 +7.1 35 +24 +25 комфорт 1026.5 1015.0
16 13.10 штиль 0 20 км ясно +21.2 +7.8 42 +22 +22 комфорт 1026.7 1015.1
17 13.10 штиль 0 15 км ясно +15.9 +8.2 60 +16 +16 1026.7 1014.9
18 13.10 штиль 0 12 км ясно +13.6 +8.2 70 +13 +13 1026.8 1014.9 +24.4 0
20 13.10 штиль 0 12 км ясно +9.7 +7.6 87 +9 +9 1026.9 1014.8
19 13.10 штиль 0 12 км ясно +11.0 +7.9 81 +10 +10 1026.8 1014.8
21 13.10 СВ 1 12 км ясно +8.9 +7.0 88 +8 +8 1026.7 1014.6
22 13.10 штиль 0 12 км ясно +7.3 +5.8 90 +6 +6 1026.6 1014.4
23 13.10 штиль 0 12 км ясно +7.2 +6.0 92 +6 +6 1026.6 1014.4
00 14.10 штиль 0 8000 м ясно +7.1 +5.9 92 +6 +6 1026.7 1014.5
02 14.10 штиль 0 6000 м ясно +6.0 +5.3 95 +5 +5 1026.7 1014.5
01 14.10 штиль 0 8000 м ясно +6.1 +5.4 95 +5 +5 1026.8 1014.6
03 14.10 штиль 0 6000 м ясно +4.9 +4.2 95 +4 +4 1026.4 1014.1
04 14.10 штиль 0 6000 м ясно +4.1 +3.4 95 +3 +3 1026.5 1014.2
05 14.10 штиль 0 6000 м ясно +3.4 +3.0 97 +2 +2 1026.2 1013.9
06 14.10 штиль 0 6000 м ясно +3.2 +2.9 98 +2 +2 1026.4 1014.1 +2.7
08 14.10 ЮВ 1 20 км ясно +15.2 +5.4 52 +16 +20 1025.7 1013.9
07 14.10 С 1 6000 м ясно +8.5 +8.1 97 +8 +9 1026.2 1014.1
09 14.10 ЮВ 2 30 км ясно +19.6 +1.1 29 +20 +25 1025.4 1013.8
10 14.10 ЮВ 2
{8}
30 км ясно +21.5 +1.2 26 +21 +28 комфорт 1025.3 1013.7
11 14.10 ЮВ 3
{8}
30 км ясно +22.8 +2.8 27 +22 +28 комфорт 1024.7 1013.2
12 14.10 ЮВ 2
{7}
30 км ясно +23.3 +3.8 28 +23 +29 комфорт 1024.0 1012.5
14 14.10 ЮВ 2 30 км 3/0
[Ci sp]
+23.2 +4.2 29 +23 +25 комфорт 1023.1 1011.6
13 14.10 ЮВ 2 30 км ясно +24.0 +4.9 29 +24 +28 комфорт 1023.4 1011.9
15 14.10 В 1 30 км 3/0
[Ci sp]
+22.7 +4.3 30 +23 +23 комфорт 1022.8 1011.3
16 14.10 В 1 30 км 3/0
[Ci sp]
+20.1 +4.2 35 +22 +22 комфорт 1023.1 1011.5
17 14.10 В 1 25 км 4/0
[Ac lent Ci sp]
+18.2 +4.0 39 +19 +19 1023.1 1011.4
18 14.10 В 1 20 км 4/0
[Ac lent Ci sp]
+16.3 +4.7 46 +17 +17 1023.2 1011.4 +24.2
20 14.10 штиль 0 20 км ясно +9.6 +3.8 67 +9 +9 1024.1 1012.1
19 14.10 Ю 1 20 км ясно +13.4 +4.3 54 +14 +14 1023.4 1011.5
21 14.10 штиль 0 15 км ясно +8.2 +3.5 72 +8 +8 1024.2 1012.1
22 14.10 штиль 0 15 км ясно +10.5 +1.3 53 +10 +10 1023.8 1011.8
23 14.10 штиль 0 15 км ясно +9.4 +1.6 58 +9 +9 1023.8 1011.8
00 15.10 штиль 0 15 км ясно +7.3 +3.2 75 +7 +7 1024.2 1012.1
02 15.10 В 1 15 км ясно +12.0 +1.6 49 +12 +12 1023.7 1011.8
01 15.10 штиль 0 15 км ясно +9.3 +3.1 65 +9 +9 1024.1 1012.0
03 15.10 ЮВ 1 15 км ясно +10.9 +1.7 53 +11 +11 1023.5 1011.5
04 15.10 штиль 0 15 км ясно +9.2 +2.1 61 +9 +9 1023.7 1011.6
05 15.10 СВ 1 15 км ясно +8.5 +2.7 67 +8 +8 1023.6 1011.5
06 15.10 В 1 20 км 3/0
[Ci sp]
+11.7 +2.2 52 +12 +12 1023.5 1011.6 +7.2 0
08 15.10 ЮВ 3
{9}
30 км 4/0
[Ci sp]
+17.5 +4.1 41 +18 +20 1023.7 1012.0
07 15.10 В 1 25 км 4/0
[Ci sp]
+13.4 +3.5 51 +14 +15 1024.0 1012.1
09 15.10 ЮВ 3
{9}
35 км ясно +19.3 +4.6 38 +20 +24 1023.6 1012.0
10 15.10 ЮВ 2
{8}
35 км ясно +21.2 +4.3 33 +21 +28 комфорт 1023.5 1011.9
11 15.10 ЮВ 3
{8}
35 км ясно +22.0 +3.2 29 +22 +27 комфорт 1022.8 1011.3
12 15.10 В 2
{7}
35 км 3/0
[Ci sp]
+23.2 +4.2 29 +23 +28 комфорт 1022.1 1010.6
14 15.10 ЮВ 2 35 км 5/0
[Ci sp]
+22.9 +3.9 29 +23 +25 комфорт 1021.7 1010.2
13 15.10 В 2 35 км 4/0
[Ci sp]
+23.5 +3.4 27 +23 +27 комфорт 1021.8 1010.3
15 15.10 В 1 35 км 5/0
[Ci sp]
+22.3 +3.9 30 +22 +23 комфорт 1021.5 1010.0
16 15.10 штиль 0 35 км 4/0
[Ci sp]
+19.9 +4.0 35 +20 +20 1021.4 1009.8
17 15.10 В 1 30 км 3/0
[Ci sp]
+18.4 +4.2 39 +20 +20 1022.0 1010.3
18 15.10 штиль 0 25 км 3/0
[Ci sp]
+17.1 +4.1 42 +17 +17 1022.2 1010.5 +23.8
20 15.10 штиль 0 20 км ясно +12.9 +4.1 55 +13 +13 1022.6 1010.7
19 15.10 СВ 1 20 км ясно +14.5 +4.2 50 +15 +15 1022.2 1010.4
21 15.10 СВ 1 20 км ясно +10.9 +3.9 62 +11 +11 1022.9 1010.9
22 15.10 штиль 0 20 км ясно +7.3 +3.0 74 +7 +7 1023.1 1011.0
23 15.10 С 1 20 км ясно +6.9 +3.2 77 +6 +6 1023.2 1011.1
00 16.10 штиль 0 15 км ясно +5.8 +3.1 83 +5 +5 1023.3 1011.1
02 16.10 штиль 0 8000 м ясно +3.8 +2.3 90 +3 +3 1022.9 1010.6
01 16.10 штиль 0 15 км ясно +5.5 +3.3 86 +5 +5 1023.0 1010.8
03 16.10 С 1 8000 м ясно +4.4 +2.4 87 +3 +3 1023.1 1010.8
04 16.10 штиль 0 8000 м ясно +3.5 +2.2 91 +2 +2 1023.0 1010.7
05 16.10 штиль 0 8000 м 4/0
[Ci sp]
+4.3 +3.1 92 +3 +3 1022.9 1010.6
06 16.10 СВ 1 8000 м 5/0
[Ac lent Ci sp]
+5.7 +4.2 90 +4 +5 1023.0 1010.8 +3.2
08 16.10 Ю 1 20 км 6/0
[Ac As Ci sp]
+13.8 +5.7 58 +14 +16 1023.6 1011.7
07 16.10 штиль 0 15 км 5/0
[Ac trans Ci sp]
+8.7 +5.6 81 +8 +9 1023.5 1011.4
09 16.10 ЮВ 2 25 км 6/0
[Ac As Ci sp]
+17.4 +6.9 50 +18 +21 1023.2 1011.5
10 16.10 ЮВ 2 25 км 6/0
[Ac As Ci sp]
+20.3 +7.3 43 +22 +26 комфорт 1022.9 1011.3
11 16.10 Ю 2 25 км 9/0
[Ac As Ci sp]
+20.5 +6.8 41 +22 +25 комфорт 1022.8 1011.2
12 16.10 ЮВ 2 30 км 9/0
[Ac As Ci sp]
+22.6 +7.2 37 +23 +27 комфорт 1022.2 1010.7
14 16.10 ЮВ 1 30 км 9/0
[Ac As Ci sp]
+22.3 +7.7 39 +23 +25 комфорт 1021.7 1010.2
13 16.10 ЮВ 2 30 км 9/0
[Ac As Ci sp]
+22.5 +7.1 37 +23 +26 комфорт 1021.9 1010.4
15 16.10 Ю 1 30 км 9/0
[Ac As Ci sp]
+21.4 +7.6 41 +22 +23 комфорт 1021.7 1010.2
16 16.10 штиль 0 25 км 10/0
[Ac As]
+18.6 +8.6 52 +19 +19 1021.9 1010.3
17 16.10 штиль 0 20 км 10/0
[Ac As]
+15.9 +8.4 61 +16 +16 1022.2 1010.4
18 16.10 штиль 0 20 км 10/0
[Ac As]
+13.5 +7.9 69 +13 +13 1022.5 1010.6 +23.2
20 16.10 штиль 0 15 км 9/0
[Ac As]
+12.4 +8.5 77 +12 +12 1022.6 1010.7
19 16.10 штиль 0 15 км 9/0
[Ac As]
+13.2 +8.5 73 +13 +13 1022.6 1010.7
21 16.10 штиль 0 15 км 8/0
[Ac As]
+11.0 +7.9 81 +10 +10 1022.8 1010.8
22 16.10 штиль 0 10 км 10/0
[Ac As]
+10.1 +7.9 86 +9 +9 1022.6 1010.6
23 16.10 С 1 10 км 8/0
[Ac As]
+8.5 +6.6 88 +8 +8 1022.7 1010.6
00 17.10 штиль 0 10 км 5/0
[Ac As]
+8.3 +7.1 92 +7 +7 1022.6 1010.5
02 17.10 штиль 0 6000 м 5/0
[Ci sp]
+6.3 +5.4 94 +5 +5 1022.5 1010.3
01 17.10 штиль 0 6000 м 5/0
[Ac As]
+7.5 +6.4 93 +7 +7 1022.4 1010.3
03 17.10 штиль 0 6000 м ясно +5.1 +4.4 95 +4 +4 1022.5 1010.3
04 17.10 штиль 0 6000 м ясно +5.2 +4.6 96 +4 +4 1022.1 1009.9
05 17.10 штиль 0 6000 м 5/0
[Ac lent Ci sp]
+4.5 +3.9 96 +3 +3 1022.4 1010.2
06 17.10 С 1 5000 м дымка 8/0
[Ac lent Cs]
+5.0 +4.6 97 +4 +4 1022.7 1010.5
08 17.10 СВ 1 8000 м 5/0
[Ac trans Ci sp]
+13.8 +6.7 62 +14 +17 1022.3 1010.5
07 17.10 СВ 1 6000 м 8/0
[Ac trans Ci sp]
+10.3 +7.0 80 +10 +11 1022.5 1010.5
09 17.10 ЮВ 1 15 км 4/0
[Ci sp]
+18.0 +5.6 44 +19 +24 1022.1 1010.4
10 17.10 В 1 20 км 3/0
[Ac trans Ci sp]
+20.1 +6.1 40 +22 +28 комфорт 1021.9 1010.3
11 17.10 СВ 1 25 км 3/0
[Ac lent Ci sp]
+21.8 +6.1 36 +22 +29 комфорт 1021.2 1009.7
12 17.10 В 1 30 км 5/0
[Ac cast Ci sp]
+24.4 +4.7 28 +24 +29 комфорт 1020.2 1008.8
14 17.10 В 1 30 км 5/0
[Ci sp]
+24.7 +4.5 27 +24 +26 комфорт 1019.7 1008.3
13 17.10 ЮВ 2 30 км 4/0
[Ci sp]
+24.9 +4.6 27 +24 +28 комфорт 1019.9 1008.5
15 17.10 ЮВ 1 25 км 8/0
[Ac trans]
+23.1 +5.1 31 +23 +24 комфорт 1019.5 1008.1
16 17.10 штиль 0 25 км 9/0
[Ac trans]
+21.2 +4.3 33 +21 +21 комфорт 1019.5 1008.0
17 17.10 штиль 0 20 км 6/0
[Ac trans]
+17.9 +5.8 45 +18 +18 1019.8 1008.2
18 17.10 СВ 1 15 км 3/0
[Ci sp]
+15.0 +6.6 57 +16 +16 1020.1 1008.3 +25.3
20 17.10 штиль 0 15 км 4/0
[Ci sp]
+9.9 +5.9 76 +9 +9 1020.5 1008.5
19 17.10 СВ 1 15 км 3/0
[Ci sp]
+12.1 +6.2 67 +12 +12 1020.3 1008.4
21 17.10 штиль 0 15 км 5/0
[Ci sp]
+7.9 +4.8 81 +7 +7 1020.7 1008.6
22 17.10 штиль 0 15 км 5/0
[Ci sp]
+6.7 +4.2 84 +6 +6 1020.6 1008.5
23 17.10 штиль 0 12 км 5/0
[Ci sp]
+6.4 +4.4 87 +5 +5 1020.5 1008.4
00 18.10 штиль 0 8000 м 5/0
[Ci sp]
+6.4 +4.4 87 +5 +5 1020.4 1008.3

 

Местоположение метеостанции Paks (Венгрия): широта 46.58 долгота 18.85 высота над уровнем моря 98 м.

В архиве по умолчанию представлена погода в Paks за последнюю неделю. Архивные данные за месяц целиком и за предыдущие месяцы, начиная с января 2011 года, Вы можете получить, выбрав интересующий диапазон дат из раскрывающегося списка и нажав кнопку "Ввод!".


*Определитесь, кто Вы:
робот инопланетянин человек

Внимание! Время в таблицах - всемирное. Для получения местного времени необходимо прибавить поправку, которая в Paks равна 1 ч.

Смотрите также архив погоды в соседних городах и на ближайших метеорологических станциях:

Погода в Baja (Венгрия) (46 км)
Погода в Agard (Венгрия) (69 км)
Погода в Siofok (Венгрия) (72 км)
Погода в Kecskemet (Венгрия) (78 км)
Погода в Pecs (Венгрия) (80 км)
Погода в Kaposvar (Венгрия) (81 км)
Погода в Palic (Сербия) (89 км)
Погода в Sombor (Сербия) (93 км)
Погода в Veszprem (Венгрия) (95 км)
Погода в Budapest (Венгрия) (98 км)

Пояснения к столбцам:

Ветер - указаны скорость ветра в м/с - средняя за 10 мин, порывы в срок и между сроками (в фигурных скобках) и направление, откуда дует ветер: С - северный, СВ - северо-восточный, В - восточный, ЮВ - юго-восточный, Ю - южный, ЮЗ - юго-западный, З - западный, СЗ - северо-западный.
Видимость - горизонтальная дальность видимости в метрах или километрах. При видимости от 1 до 10 км при отсутствии осадков обычно наблюдается дымка, при ухудшении видимости до 1 км и менее - туман. В сухую погоду видимость может ухудшаться дымом, пылью или мглою.
Явления - указаны атмосферные явления, наблюдавшиеся в срок или в последний час перед сроком; фигурными скобками обозначены явления, наблюдавшиеся между сроками (за 1-3 часа до срока); квадратными скобками обозначены град или гололедные отложения с указанием их диаметра в мм.
Облачность - указаны через наклонную черту общая и нижняя облачность в баллах и высота нижней границы облаков в метрах; квадратными скобками обозначены формы облаков: Ci - перистые, Cs - перисто-слоистые, Cc - перисто-кучевые, Ac - высококучевые, As - высокослоистые, Sc - слоисто-кучевые, Ns - слоисто-дождевые, Cu - кучевые, Cb - кучево-дождевые. Подробнее классификацию облаков см. в Атласе облаков (PDF).
T - Температура воздуха - температура, измеренная на высоте 2 м над землей.
Td - Температура точки росы - температура, при понижении до которой содержащийся в воздухе водяной пар достигнет насыщения.
f - Относительная влажность воздуха - влажноcть воздуха, измеренная на высоте 2 м над землей.
Te - Эффективная температура - температура, которую ощущает одетый по сезону человек в тени. Характеристика душности погоды. При расчете учитывается влияние влажности воздуха и скорости ветра на теплоощущения человека.
Tes - Эффективная температура на солнце - температура, которую ощущает человек, с поправкой на солнечный нагрев. Характеристика знойности погоды. Зависит от высоты солнца над горизонтом, облачности и скорости ветра. Ночью, в пасмурную погоду, а также при ветре 12 м/с и более поправка равна нулю.
P - Атмосферное давление - приведенное к уровню моря атмосферное давление.
Po - Атмосферное давление - измеренное на уровне метеостанции атмосферное давление.
Tmin - Минимальная температура - минимум температуры воздуха на высоте 2 м над землей.
Tmax - Максимальная температура - максимум температуры воздуха на высоте 2 м над землей.
R - Количество осадков - Количество выпавших осадков за период времени, мм. При наведении курсора мыши на число - период времени, за который выпало указанное количество осадков.
R24 - Количество осадков - Количество выпавших осадков за 24 часа, мм.
S - Снежный покров - Высота снежного покрова, см. При наведении курсора мыши на число - состояние снежного покрова и степень покрытия местности в баллах.